Regional Weather Roundup
Issued by NWS

Home | Current Version | Previous Version | Text Only | Print | Product List | Glossary Off
Versions: 1 2 3 4 5 6 7 8 9 10 11 12 13 14 15 16 17 18 19 20 21 22 23 24 25 26 27 28 29 30 31 32 33 34 35 36 37 38 39 40 41 42 43 44 45 46 47 48 49 50

481
ASUS43 KDMX 231301
RWRIA

WEATHER ROUNDUP FOR IOWA
NATIONAL WEATHER SERVICE DES MOINES IA
800 AM CDT TUE MAY 23 2017

NOTE: "FAIR" INDICATES FEW OR NO CLOUDS BELOW 12,000 FEET WITH NO
SIGNIFICANT WEATHER AND/OR OBSTRUCTIONS TO VISIBILITY.

* - THESE STATIONS ARE NOT NWS STATIONS...THUS NOT UNDER NWS
QUALITY CONTROL.  THEY ALSO DO NOT REPORT WEATHER SUCH
AS PRECIPITATION OR FOG.

IAZ001>003-012>014-020>022-031>034-043>046-231400-
   NORTHWEST IOWA

CITY           SKY/WX    TMP DP  RH WIND       PRES   REMARKS
CARROLL *      MOSUNNY   52  46  82 NW20      29.86S
CHEROKEE *     CLOUDY    48  45  90 NW8G18    29.88S
DENISON *      PTSUNNY   50  45  81 NW9       29.90S
LE MARS *      CLOUDY    50  45  81 NW14      29.90S
ORANGE CITY *  CLOUDY    48  46  93 NW10G16   29.88S
SHELDON *      CLOUDY    46  46 100 NW12G17     N/A  FOG
SIOUX CITY     CLOUDY    50  46  86 W9        29.91S
SPENCER        CLOUDY    48  46  93 NW10      29.86S
STORM LAKE *   CLOUDY    48  43  81 NW13      29.87S
$$

IAZ055>058-069>071-079>083-090>094-231400-
   SOUTHWEST IOWA

CITY           SKY/WX    TMP DP  RH WIND       PRES   REMARKS
ATLANTIC *     SUNNY     52  46  82 NW14      29.88S
AUDUBON *      SUNNY     52  46  82 NW8       29.88S
CLARINDA *     SUNNY     54  48  82 NW8       29.92S
COUNCIL BLFS * SUNNY     52  46  82 N13       29.91S
CRESTON *      MOSUNNY   52  46  82 NW12      29.88F
HARLAN  *      MOSUNNY   50  46  87 NW14G20   29.92S
LAMONI         MOSUNNY   52  49  89 NW7       29.87R
RED OAK *      SUNNY     54  46  76 NW10      29.90S
SHENANDOAH *   SUNNY     54  46  76 NW8       29.91S
$$

IAZ047>049-059>061-072>074-084-231400-
   CENTRAL IOWA

CITY           SKY/WX    TMP DP  RH WIND       PRES   REMARKS
AMES           CLOUDY    52  49  89 NW8       29.84S
ANKENY *       MOSUNNY   54  48  82 NW9       29.85F
BOONE *        PTSUNNY   52  50  93 NW9G20    29.83S
DES MOINES     MOSUNNY   54  49  83 NW10      29.84F
GRINNELL*      PTSUNNY   52  49  89 NW9       29.84S
MARSHALLTOWN   CLOUDY    52  50  93 W7        29.82S
NEWTON *       CLOUDY    52  50  93 NW9       29.83S
PELLA *        CLOUDY    54  50  86 NW10      29.84S
PERRY *          N/A     52  49  89 NW9       29.86S
$$

IAZ004>006-015-016-023>025-035-036-231400-
   NORTH CENTRAL IOWA

CITY           SKY/WX    TMP DP  RH WIND       PRES   REMARKS
ALGONA *       CLOUDY    48  48 100 N6        29.84S
CLARION *      CLOUDY    50  50 100 NW12G18   29.83S
ESTHERVILLE    CLOUDY    47  46  97 NW13      29.84S
FORT DODGE *   CLOUDY    52  46  82 NW6       29.85S
MASON CITY     CLOUDY    50  46  86 NW14      29.83S
FOREST CITY *  PTSUNNY   50  43  76 NW7       29.83S
WEBSTER CITY * MOSUNNY   54  50  87 NW14      29.82S
IOWA FALLS *   CLOUDY    53  49  89 NW10      29.83F FOG
$$

IAZ007>011-017>019-026>030-037>042-050>054-066-231400-
   NORTHEAST IOWA

CITY           SKY/WX    TMP DP  RH WIND       PRES   REMARKS
CEDAR RAPIDS   PTSUNNY   53  53 100 NW7       29.79S FOG
CHARLES CITY * CLOUDY    52  52 100 NW6       29.81S
CLINTON *      PTSUNNY   57  54  89 W9        29.80S
DECORAH *      CLOUDY    52  50  93 NW5       29.77S
DUBUQUE        CLOUDY    53  51  93 W8        29.78R
MONTICELLO *   CLOUDY    54  52  94 W7        29.78S
OELWEIN *      CLOUDY    52  52 100 NW14      29.80R
WATERLOO       CLOUDY    51  48  89 NW10      29.80S
$$

IAZ064-065-067-068-078-231400-
   EAST CENTRAL IOWA

CITY           SKY/WX    TMP DP  RH WIND       PRES   REMARKS
DAVENPORT      CLOUDY    57  53  86 SW10      29.81R
IOWA CITY      PTSUNNY   55  51  86 NW5       29.81S
MT. PLEASANT * CLOUDY    55  54  97 SW7       29.80S
MUSCATINE *    CLOUDY    57  52  82 W7        29.81R
QUAD CITIES    CLOUDY    59  54  83 SW7       29.79S
$$

IAZ062-063-075>077-085>089-095>099-231400-
   SOUTHEAST IOWA

CITY           SKY/WX    TMP DP  RH WIND       PRES   REMARKS
BURLINGTON     CLOUDY    57  57 100 SW7       29.81S
FAIRFIELD *    CLOUDY    54  52  94 NW13G18   29.80S
FORT MADISON * CLOUDY    57  55  94 SW5       29.82S
KEOKUK *       CLOUDY    57  55  94 SW7       29.81S
OSKALOOSA *    CLOUDY    53  51  94 NW13      29.82F
OTTUMWA        CLOUDY    54  53  97 NW10      29.82R FOG
WASHINGTON *   CLOUDY    54  52  94 NW10      29.81S
$$

ABBREVIATIONS USED IN REMARKS
   TC - TEMPERATURES IN CELSIUS
  WCI - WIND CHILL INDEX
   HX - HEAT INDEX
  VSB - VISIBILITY
$$





USA.gov is the U.S. government's official web portal to all federal, state and local government web resources and services.